Year,Month,Day,Hour,Minute,Value (Times are PST for temperature in C)
2012,05,19,00,00,6.60
2012,05,19,00,01,6.50
2012,05,19,00,02,6.50
2012,05,19,00,03,6.50
2012,05,19,00,04,6.40
2012,05,19,00,05,6.30
2012,05,19,00,06,6.20
2012,05,19,00,07,6.10
2012,05,19,00,08,6.10
2012,05,19,00,09,6.00
2012,05,19,00,10,5.90
2012,05,19,00,11,5.90
2012,05,19,00,12,5.80
2012,05,19,00,13,5.80
2012,05,19,00,14,5.70
2012,05,19,00,15,5.70
2012,05,19,00,16,5.70
2012,05,19,00,17,5.60
2012,05,19,00,18,5.60
2012,05,19,00,19,5.60
2012,05,19,00,20,5.50
2012,05,19,00,21,5.50
2012,05,19,00,22,5.40
2012,05,19,00,23,5.40
2012,05,19,00,24,5.30
2012,05,19,00,25,5.30
2012,05,19,00,26,5.30
2012,05,19,00,27,5.20
2012,05,19,00,28,5.10
2012,05,19,00,29,5.00
2012,05,19,00,30,4.90
2012,05,19,00,31,4.90
2012,05,19,00,32,4.80
2012,05,19,00,33,4.80
2012,05,19,00,34,4.80
2012,05,19,00,35,4.70
2012,05,19,00,36,4.70
2012,05,19,00,37,4.70
2012,05,19,00,38,4.60
2012,05,19,00,39,4.60
2012,05,19,00,40,4.60
2012,05,19,00,41,4.60
2012,05,19,00,42,4.60
2012,05,19,00,43,4.60
2012,05,19,00,44,4.60
2012,05,19,00,45,4.60
2012,05,19,00,46,4.60
2012,05,19,00,47,4.60
2012,05,19,00,48,4.50
2012,05,19,00,49,4.50
2012,05,19,00,50,4.50
2012,05,19,00,51,4.50
2012,05,19,00,52,4.40
2012,05,19,00,53,4.40
2012,05,19,00,54,4.40
2012,05,19,00,55,4.40
2012,05,19,00,56,4.40
2012,05,19,00,57,4.30
2012,05,19,00,58,4.30
2012,05,19,00,59,4.30
2012,05,19,01,00,4.30
2012,05,19,01,01,4.30
2012,05,19,01,02,4.30
2012,05,19,01,03,4.30
2012,05,19,01,04,4.20
2012,05,19,01,05,4.20
2012,05,19,01,06,4.20
2012,05,19,01,07,4.20
2012,05,19,01,08,4.20
2012,05,19,01,09,4.20
2012,05,19,01,10,4.20
2012,05,19,01,11,4.10
2012,05,19,01,12,4.10
2012,05,19,01,13,4.10
2012,05,19,01,14,4.10
2012,05,19,01,15,4.10
2012,05,19,01,16,4.00
2012,05,19,01,17,4.00
2012,05,19,01,18,4.00
2012,05,19,01,19,3.90
2012,05,19,01,20,3.90
2012,05,19,01,21,3.90
2012,05,19,01,22,3.90
2012,05,19,01,23,3.90
2012,05,19,01,24,3.90
2012,05,19,01,25,3.90
2012,05,19,01,26,3.80
2012,05,19,01,27,3.80
2012,05,19,01,28,3.80
2012,05,19,01,29,3.80
2012,05,19,01,30,3.80
2012,05,19,01,31,3.80
2012,05,19,01,32,3.80
2012,05,19,01,33,3.80
2012,05,19,01,34,3.70
2012,05,19,01,35,3.70
2012,05,19,01,36,3.70
2012,05,19,01,37,3.70
2012,05,19,01,38,3.70
2012,05,19,01,39,3.70
2012,05,19,01,40,3.70
2012,05,19,01,41,3.70
2012,05,19,01,42,3.70
2012,05,19,01,43,3.70
2012,05,19,01,44,3.70
2012,05,19,01,45,3.70
2012,05,19,01,46,3.70
2012,05,19,01,47,3.70
2012,05,19,01,48,3.70
2012,05,19,01,49,3.70
2012,05,19,01,50,3.60
2012,05,19,01,51,3.60
2012,05,19,01,52,3.60
2012,05,19,01,53,3.60
2012,05,19,01,54,3.60
2012,05,19,01,55,3.60
2012,05,19,01,56,3.50
2012,05,19,01,57,3.50
2012,05,19,01,58,3.50
2012,05,19,01,59,3.50
2012,05,19,02,00,3.40
2012,05,19,02,01,3.40
2012,05,19,02,02,3.40
2012,05,19,02,03,3.40
2012,05,19,02,04,3.40
2012,05,19,02,05,3.40
2012,05,19,02,06,3.40
2012,05,19,02,07,3.40
2012,05,19,02,08,3.30
2012,05,19,02,09,3.30
2012,05,19,02,10,3.30
2012,05,19,02,11,3.30
2012,05,19,02,12,3.30
2012,05,19,02,13,3.30
2012,05,19,02,14,3.40
2012,05,19,02,15,3.40
2012,05,19,02,16,3.40
2012,05,19,02,17,3.40
2012,05,19,02,18,3.40
2012,05,19,02,19,3.40
2012,05,19,02,20,3.40
2012,05,19,02,21,3.40
2012,05,19,02,22,3.40
2012,05,19,02,23,3.40
2012,05,19,02,24,3.40
2012,05,19,02,25,3.40
2012,05,19,02,26,3.40
2012,05,19,02,27,3.40
2012,05,19,02,28,3.40
2012,05,19,02,29,3.30
2012,05,19,02,30,3.30
2012,05,19,02,31,3.30
2012,05,19,02,32,3.30
2012,05,19,02,33,3.30
2012,05,19,02,34,3.30
2012,05,19,02,35,3.30
2012,05,19,02,36,3.20
2012,05,19,02,37,3.20
2012,05,19,02,38,3.20
2012,05,19,02,39,3.20
2012,05,19,02,40,3.20
2012,05,19,02,41,3.20
2012,05,19,02,42,3.10
2012,05,19,02,43,3.10
2012,05,19,02,44,3.10
2012,05,19,02,45,3.10
2012,05,19,02,46,3.10
2012,05,19,02,47,3.00
2012,05,19,02,48,3.00
2012,05,19,02,49,3.00
2012,05,19,02,50,3.00
2012,05,19,02,51,2.90
2012,05,19,02,52,2.90
2012,05,19,02,53,2.90
2012,05,19,02,54,2.90
2012,05,19,02,55,2.90
2012,05,19,02,56,2.90
2012,05,19,02,57,2.90
2012,05,19,02,58,2.90
2012,05,19,02,59,2.90
2012,05,19,03,00,2.90
2012,05,19,03,01,2.90
2012,05,19,03,02,2.90
2012,05,19,03,03,2.90
2012,05,19,03,04,2.90
2012,05,19,03,05,2.80
2012,05,19,03,06,2.80
2012,05,19,03,07,2.80
2012,05,19,03,08,2.80
2012,05,19,03,09,2.80
2012,05,19,03,10,2.80
2012,05,19,03,11,2.80
2012,05,19,03,12,2.80
2012,05,19,03,13,2.80
2012,05,19,03,14,2.70
2012,05,19,03,15,2.70
2012,05,19,03,16,2.70
2012,05,19,03,17,2.70
2012,05,19,03,18,2.70
2012,05,19,03,19,2.70
2012,05,19,03,20,2.70
2012,05,19,03,21,2.60
2012,05,19,03,22,2.60
2012,05,19,03,23,2.60
2012,05,19,03,24,2.60
2012,05,19,03,25,2.60
2012,05,19,03,26,2.60
2012,05,19,03,27,2.50
2012,05,19,03,28,2.50
2012,05,19,03,29,2.50
2012,05,19,03,30,2.50
2012,05,19,03,31,2.50
2012,05,19,03,32,2.50
2012,05,19,03,33,2.40
2012,05,19,03,34,2.40
2012,05,19,03,35,2.40
2012,05,19,03,36,2.40
2012,05,19,03,37,2.40
2012,05,19,03,38,2.40
2012,05,19,03,39,2.30
2012,05,19,03,40,2.30
2012,05,19,03,41,2.30
2012,05,19,03,42,2.30
2012,05,19,03,43,2.40
2012,05,19,03,44,2.40
2012,05,19,03,45,2.40
2012,05,19,03,46,2.40
2012,05,19,03,47,2.40
2012,05,19,03,48,2.40
2012,05,19,03,49,2.30
2012,05,19,03,50,2.30
2012,05,19,03,51,2.30
2012,05,19,03,52,2.30
2012,05,19,03,53,2.30
2012,05,19,03,54,2.30
2012,05,19,03,55,2.30
2012,05,19,03,56,2.30
2012,05,19,03,57,2.30
2012,05,19,03,58,2.30
2012,05,19,03,59,2.30
2012,05,19,04,00,2.20
2012,05,19,04,01,2.20
2012,05,19,04,02,2.20
2012,05,19,04,03,2.20
2012,05,19,04,04,2.20
2012,05,19,04,05,2.20
2012,05,19,04,06,2.20
2012,05,19,04,07,2.10
2012,05,19,04,08,2.10
2012,05,19,04,09,2.10
2012,05,19,04,10,2.10
2012,05,19,04,11,2.10
2012,05,19,04,12,2.00
2012,05,19,04,13,2.00
2012,05,19,04,14,2.00
2012,05,19,04,15,2.00
2012,05,19,04,16,2.10
2012,05,19,04,17,2.00
2012,05,19,04,18,2.10
2012,05,19,04,19,2.10
2012,05,19,04,20,2.10
2012,05,19,04,21,2.00
2012,05,19,04,22,2.00
2012,05,19,04,23,2.00
2012,05,19,04,24,2.00
2012,05,19,04,25,2.00
2012,05,19,04,26,2.00
2012,05,19,04,27,2.00
2012,05,19,04,28,2.00
2012,05,19,04,29,2.00
2012,05,19,04,30,2.00
2012,05,19,04,31,2.00
2012,05,19,04,32,2.00
2012,05,19,04,33,2.00
2012,05,19,04,34,2.00
2012,05,19,04,35,2.00
2012,05,19,04,36,1.90
2012,05,19,04,37,1.90
2012,05,19,04,38,1.90
2012,05,19,04,39,1.90
2012,05,19,04,40,1.90
2012,05,19,04,41,1.90
2012,05,19,04,42,1.80
2012,05,19,04,43,1.90
2012,05,19,04,44,1.80
2012,05,19,04,45,1.80
2012,05,19,04,46,1.90
2012,05,19,04,47,1.90
2012,05,19,04,48,1.90
2012,05,19,04,49,1.90
2012,05,19,04,50,1.90
2012,05,19,04,51,1.90
2012,05,19,04,52,1.90
2012,05,19,04,53,1.90
2012,05,19,04,54,1.90
2012,05,19,04,55,2.00
2012,05,19,04,56,2.00
2012,05,19,04,57,2.00
2012,05,19,04,58,2.00
2012,05,19,04,59,2.10
2012,05,19,05,00,2.10
2012,05,19,05,01,2.10
2012,05,19,05,02,2.10
2012,05,19,05,03,2.10
2012,05,19,05,04,2.10
2012,05,19,05,05,2.10
2012,05,19,05,06,2.10
2012,05,19,05,07,2.10
2012,05,19,05,08,2.10
2012,05,19,05,09,2.10
2012,05,19,05,10,2.10
2012,05,19,05,11,2.10
2012,05,19,05,12,2.10
2012,05,19,05,13,2.00
2012,05,19,05,14,2.00
2012,05,19,05,15,2.00
2012,05,19,05,16,2.00
2012,05,19,05,17,1.90
2012,05,19,05,18,1.90
2012,05,19,05,19,1.90
2012,05,19,05,20,1.90
2012,05,19,05,21,1.90
2012,05,19,05,22,1.90
2012,05,19,05,23,1.90
2012,05,19,05,24,1.80
2012,05,19,05,25,1.80
2012,05,19,05,26,1.80
2012,05,19,05,27,1.80
2012,05,19,05,28,1.80
2012,05,19,05,29,1.70
2012,05,19,05,30,1.70
2012,05,19,05,31,1.70
2012,05,19,05,32,1.70
2012,05,19,05,33,1.70
2012,05,19,05,34,1.70
2012,05,19,05,35,1.70
2012,05,19,05,36,1.70
2012,05,19,05,37,1.70
2012,05,19,05,38,1.70
2012,05,19,05,39,1.70
2012,05,19,05,40,1.70
2012,05,19,05,41,1.60
2012,05,19,05,42,1.60
2012,05,19,05,43,1.60
2012,05,19,05,44,1.60
2012,05,19,05,45,1.50
2012,05,19,05,46,1.50
2012,05,19,05,47,1.50
2012,05,19,05,48,1.40
2012,05,19,05,49,1.40
2012,05,19,05,50,1.40
2012,05,19,05,51,1.40
2012,05,19,05,52,1.40
2012,05,19,05,53,1.40
2012,05,19,05,54,1.40
2012,05,19,05,55,1.40
2012,05,19,05,56,1.40
2012,05,19,05,57,1.40
2012,05,19,05,58,1.40
2012,05,19,05,59,1.40
2012,05,19,06,00,1.40
2012,05,19,06,01,1.40
2012,05,19,06,02,1.40
2012,05,19,06,03,1.40
2012,05,19,06,04,1.40
2012,05,19,06,05,1.50
2012,05,19,06,06,1.50
2012,05,19,06,07,1.50
2012,05,19,06,08,1.60
2012,05,19,06,09,1.60
2012,05,19,06,10,1.60
2012,05,19,06,11,1.60
2012,05,19,06,12,1.60
2012,05,19,06,13,1.60
2012,05,19,06,14,1.60
2012,05,19,06,15,1.70
2012,05,19,06,16,1.70
2012,05,19,06,17,1.80
2012,05,19,06,18,1.80
2012,05,19,06,19,1.80
2012,05,19,06,20,1.80
2012,05,19,06,21,1.80
2012,05,19,06,22,1.90
2012,05,19,06,23,1.90
2012,05,19,06,24,1.90
2012,05,19,06,25,2.00
2012,05,19,06,26,2.00
2012,05,19,06,27,2.00
2012,05,19,06,28,2.10
2012,05,19,06,29,2.10
2012,05,19,06,30,2.10
2012,05,19,06,31,2.10
2012,05,19,06,32,2.10
2012,05,19,06,33,2.20
2012,05,19,06,34,2.20
2012,05,19,06,35,2.20
2012,05,19,06,36,2.20
2012,05,19,06,37,2.20
2012,05,19,06,38,2.20
2012,05,19,06,39,2.20
2012,05,19,06,40,2.30
2012,05,19,06,41,2.30
2012,05,19,06,42,2.30
2012,05,19,06,43,2.40
2012,05,19,06,44,2.50
2012,05,19,06,45,2.60
2012,05,19,06,46,2.70
2012,05,19,06,47,2.70
2012,05,19,06,48,2.80
2012,05,19,06,49,2.90
2012,05,19,06,50,3.00
2012,05,19,06,51,3.00
2012,05,19,06,52,3.10
2012,05,19,06,53,3.20
2012,05,19,06,54,3.20
2012,05,19,06,55,3.30
2012,05,19,06,56,3.40
2012,05,19,06,57,3.50
2012,05,19,06,58,3.50
2012,05,19,06,59,3.60
2012,05,19,07,00,3.70
2012,05,19,07,01,3.80
2012,05,19,07,02,4.00
2012,05,19,07,03,4.10
2012,05,19,07,04,4.20
2012,05,19,07,05,4.30
2012,05,19,07,06,4.40
2012,05,19,07,07,4.50
2012,05,19,07,08,4.60
2012,05,19,07,09,4.80
2012,05,19,07,10,4.90
2012,05,19,07,11,5.00
2012,05,19,07,12,5.20
2012,05,19,07,13,5.30
2012,05,19,07,14,5.50
2012,05,19,07,15,5.70
2012,05,19,07,16,5.80
2012,05,19,07,17,6.00
2012,05,19,07,18,6.10
2012,05,19,07,19,6.20
2012,05,19,07,20,6.30
2012,05,19,07,21,6.40
2012,05,19,07,22,6.50
2012,05,19,07,23,6.50
2012,05,19,07,24,6.60
2012,05,19,07,25,6.60
2012,05,19,07,26,6.60
2012,05,19,07,27,6.70
2012,05,19,07,28,6.70
2012,05,19,07,29,6.80
2012,05,19,07,30,6.90
2012,05,19,07,31,7.00
2012,05,19,07,32,7.20
2012,05,19,07,33,7.30
2012,05,19,07,34,7.50
2012,05,19,07,35,7.70
2012,05,19,07,36,7.80
2012,05,19,07,37,8.00
2012,05,19,07,38,8.10
2012,05,19,07,39,8.20
2012,05,19,07,40,8.30
2012,05,19,07,41,8.40
2012,05,19,07,42,8.60
2012,05,19,07,43,8.70
2012,05,19,07,44,8.80
2012,05,19,07,45,8.90
2012,05,19,07,46,9.00
2012,05,19,07,47,9.20
2012,05,19,07,48,9.30
2012,05,19,07,49,9.40
2012,05,19,07,50,9.50
2012,05,19,07,51,9.60
2012,05,19,07,52,9.60
2012,05,19,07,53,9.70
2012,05,19,07,54,9.80
2012,05,19,07,55,9.90
2012,05,19,07,56,9.90
2012,05,19,07,57,9.90
2012,05,19,07,58,10.00
2012,05,19,07,59,10.10
2012,05,19,08,00,10.10
2012,05,19,08,01,10.10
2012,05,19,08,02,10.20
2012,05,19,08,03,10.20
2012,05,19,08,04,10.30
2012,05,19,08,05,10.30
2012,05,19,08,06,10.40
2012,05,19,08,07,10.40
2012,05,19,08,08,10.50
2012,05,19,08,09,10.60
2012,05,19,08,10,10.60
2012,05,19,08,11,10.60
2012,05,19,08,12,10.60
2012,05,19,08,13,10.70
2012,05,19,08,14,10.70
2012,05,19,08,15,10.80
2012,05,19,08,16,10.80
2012,05,19,08,17,10.80
2012,05,19,08,18,10.90
2012,05,19,08,19,10.90
2012,05,19,08,20,11.00
2012,05,19,08,21,11.10
2012,05,19,08,22,11.10
2012,05,19,08,23,11.20
2012,05,19,08,24,11.30
2012,05,19,08,25,11.30
2012,05,19,08,26,11.40
2012,05,19,08,27,11.50
2012,05,19,08,28,11.60
2012,05,19,08,29,11.60
2012,05,19,08,30,11.70
2012,05,19,08,31,11.70
2012,05,19,08,32,11.70
2012,05,19,08,33,11.70
2012,05,19,08,34,11.70
2012,05,19,08,35,11.70
2012,05,19,08,36,11.70
2012,05,19,08,37,11.70
2012,05,19,08,38,11.80
2012,05,19,08,39,11.80
2012,05,19,08,40,11.90
2012,05,19,08,41,11.90
2012,05,19,08,42,12.00
2012,05,19,08,43,12.10
2012,05,19,08,44,12.20
2012,05,19,08,45,12.20
2012,05,19,08,46,12.30
2012,05,19,08,47,12.30
2012,05,19,08,48,12.30
2012,05,19,08,49,12.30
2012,05,19,08,50,12.30
2012,05,19,08,51,12.30
2012,05,19,08,52,12.40
2012,05,19,08,53,12.40
2012,05,19,08,54,12.40
2012,05,19,08,55,12.40
2012,05,19,08,56,12.30
2012,05,19,08,57,12.40
2012,05,19,08,58,12.30
2012,05,19,08,59,12.30
2012,05,19,09,00,12.30
2012,05,19,09,01,12.40
2012,05,19,09,02,12.40
2012,05,19,09,03,12.50
2012,05,19,09,04,12.50
2012,05,19,09,05,12.40
2012,05,19,09,06,12.40
2012,05,19,09,07,12.40
2012,05,19,09,08,12.50
2012,05,19,09,09,12.60
2012,05,19,09,10,12.60
2012,05,19,09,11,12.60
2012,05,19,09,12,12.70
2012,05,19,09,13,12.80
2012,05,19,09,14,12.80
2012,05,19,09,15,12.90
2012,05,19,09,16,13.00
2012,05,19,09,17,13.10
2012,05,19,09,18,13.20
2012,05,19,09,19,13.20
2012,05,19,09,20,13.10
2012,05,19,09,21,13.00
2012,05,19,09,22,13.00
2012,05,19,09,23,13.00
2012,05,19,09,24,13.10
2012,05,19,09,25,13.10
2012,05,19,09,26,13.20
2012,05,19,09,27,13.20
2012,05,19,09,28,13.30
2012,05,19,09,29,13.30
2012,05,19,09,30,13.40
2012,05,19,09,31,13.40
2012,05,19,09,32,13.40
2012,05,19,09,33,13.50
2012,05,19,09,34,13.50
2012,05,19,09,35,13.50
2012,05,19,09,36,13.60
2012,05,19,09,37,13.60
2012,05,19,09,38,13.60
2012,05,19,09,39,13.70
2012,05,19,09,40,13.80
2012,05,19,09,41,13.80
2012,05,19,09,42,13.80
2012,05,19,09,43,13.80
2012,05,19,09,44,13.80
2012,05,19,09,45,13.80
2012,05,19,09,46,13.90
2012,05,19,09,47,14.10
2012,05,19,09,48,14.10
2012,05,19,09,49,14.10
2012,05,19,09,50,14.20
2012,05,19,09,51,14.20
2012,05,19,09,52,14.10
2012,05,19,09,53,14.10
2012,05,19,09,54,14.10
2012,05,19,09,55,14.10
2012,05,19,09,56,14.10
2012,05,19,09,57,14.10
2012,05,19,09,58,14.10
2012,05,19,09,59,14.10
2012,05,19,10,00,14.20
2012,05,19,10,01,14.20
2012,05,19,10,02,14.30
2012,05,19,10,03,14.20
2012,05,19,10,04,14.10
2012,05,19,10,05,14.00
2012,05,19,10,06,13.90
2012,05,19,10,07,13.90
2012,05,19,10,08,13.90
2012,05,19,10,09,13.90
2012,05,19,10,10,13.90
2012,05,19,10,11,13.90
2012,05,19,10,12,13.90
2012,05,19,10,13,13.90
2012,05,19,10,14,13.90
2012,05,19,10,15,13.90
2012,05,19,10,16,14.00
2012,05,19,10,17,14.10
2012,05,19,10,18,14.20
2012,05,19,10,19,14.30
2012,05,19,10,20,14.40
2012,05,19,10,21,14.50
2012,05,19,10,22,14.60
2012,05,19,10,23,14.70
2012,05,19,10,24,14.70
2012,05,19,10,25,14.90
2012,05,19,10,26,14.90
2012,05,19,10,27,14.80
2012,05,19,10,28,14.80
2012,05,19,10,29,14.90
2012,05,19,10,30,15.00
2012,05,19,10,31,15.00
2012,05,19,10,32,15.00
2012,05,19,10,33,15.00
2012,05,19,10,34,15.00
2012,05,19,10,35,15.00
2012,05,19,10,36,15.00
2012,05,19,10,37,15.00
2012,05,19,10,38,15.00
2012,05,19,10,39,15.00
2012,05,19,10,40,15.00
2012,05,19,10,41,15.00
2012,05,19,10,42,14.80
2012,05,19,10,43,14.80
2012,05,19,10,44,14.70
2012,05,19,10,45,14.70
2012,05,19,10,46,14.80
2012,05,19,10,47,14.80
2012,05,19,10,48,14.80
2012,05,19,10,49,14.60
2012,05,19,10,50,14.60
2012,05,19,10,51,14.40
2012,05,19,10,52,14.40
2012,05,19,10,53,14.50
2012,05,19,10,54,14.60
2012,05,19,10,55,14.60
2012,05,19,10,56,14.60
2012,05,19,10,57,14.60
2012,05,19,10,58,14.50
2012,05,19,10,59,14.50
2012,05,19,11,00,14.40
2012,05,19,11,01,14.50
2012,05,19,11,02,14.50
2012,05,19,11,03,14.60
2012,05,19,11,04,14.50
2012,05,19,11,05,14.30
2012,05,19,11,06,14.30
2012,05,19,11,07,14.30
2012,05,19,11,08,14.40
2012,05,19,11,09,14.40
2012,05,19,11,10,14.40
2012,05,19,11,11,14.20
2012,05,19,11,12,14.20
2012,05,19,11,13,14.20
2012,05,19,11,14,14.20
2012,05,19,11,15,14.30
2012,05,19,11,16,14.30
2012,05,19,11,17,14.30
2012,05,19,11,18,14.40
2012,05,19,11,19,14.40
2012,05,19,11,20,14.40
2012,05,19,11,21,14.40
2012,05,19,11,22,14.40
2012,05,19,11,23,14.20
2012,05,19,11,24,14.20
2012,05,19,11,25,14.20
2012,05,19,11,26,14.20
2012,05,19,11,27,14.20
2012,05,19,11,28,14.30
2012,05,19,11,29,14.30
2012,05,19,11,30,14.30
2012,05,19,11,31,14.30
2012,05,19,11,32,14.20
2012,05,19,11,33,14.20
2012,05,19,11,34,14.20
2012,05,19,11,35,14.20
2012,05,19,11,36,14.30
2012,05,19,11,37,14.20
2012,05,19,11,38,14.20
2012,05,19,11,39,14.20
2012,05,19,11,40,14.20
2012,05,19,11,41,14.10
2012,05,19,11,42,14.10
2012,05,19,11,43,14.20
2012,05,19,11,44,14.30
2012,05,19,11,45,14.30
2012,05,19,11,46,14.30
2012,05,19,11,47,14.30
2012,05,19,11,48,14.30
2012,05,19,11,49,14.30
2012,05,19,11,50,14.40
2012,05,19,11,51,14.50
2012,05,19,11,52,14.70
2012,05,19,11,53,14.80
2012,05,19,11,54,14.80
2012,05,19,11,55,14.80
2012,05,19,11,56,14.80
2012,05,19,11,57,14.80
2012,05,19,11,58,14.80
2012,05,19,11,59,14.90
2012,05,19,12,00,15.00
2012,05,19,12,01,15.00
2012,05,19,12,02,15.00
2012,05,19,12,03,15.00
2012,05,19,12,04,15.00
2012,05,19,12,05,15.00
2012,05,19,12,06,14.90
2012,05,19,12,07,14.70
2012,05,19,12,08,14.60
2012,05,19,12,09,14.60
2012,05,19,12,10,14.60
2012,05,19,12,11,14.60
2012,05,19,12,12,14.60
2012,05,19,12,13,14.60
2012,05,19,12,14,14.60
2012,05,19,12,15,14.50
2012,05,19,12,16,14.60
2012,05,19,12,17,14.70
2012,05,19,12,18,14.90
2012,05,19,12,19,15.00
2012,05,19,12,20,15.00
2012,05,19,12,21,15.00
2012,05,19,12,22,15.00
2012,05,19,12,23,15.00
2012,05,19,12,24,15.00
2012,05,19,12,25,15.00
2012,05,19,12,26,15.00
2012,05,19,12,27,15.10
2012,05,19,12,28,15.10
2012,05,19,12,29,15.20
2012,05,19,12,30,15.30
2012,05,19,12,31,15.30
2012,05,19,12,32,15.30
2012,05,19,12,33,15.30
2012,05,19,12,34,15.40
2012,05,19,12,35,15.50
2012,05,19,12,36,15.60
2012,05,19,12,37,15.60
2012,05,19,12,38,15.60
2012,05,19,12,39,15.60
2012,05,19,12,40,15.60
2012,05,19,12,41,15.60
2012,05,19,12,42,15.60
2012,05,19,12,43,15.50
2012,05,19,12,44,15.50
2012,05,19,12,45,15.50
2012,05,19,12,46,15.50
2012,05,19,12,47,15.70
2012,05,19,12,48,15.70
2012,05,19,12,49,15.80
2012,05,19,12,50,15.90
2012,05,19,12,51,15.90
2012,05,19,12,52,15.90
2012,05,19,12,53,15.90
2012,05,19,12,54,15.90
2012,05,19,12,55,16.00
2012,05,19,12,56,16.10
2012,05,19,12,57,16.10
2012,05,19,12,58,16.00
2012,05,19,12,59,15.90
2012,05,19,13,00,15.90
2012,05,19,13,01,16.00
2012,05,19,13,02,16.00
2012,05,19,13,03,16.10
2012,05,19,13,04,15.90
2012,05,19,13,05,15.80
2012,05,19,13,06,15.90
2012,05,19,13,07,15.90
2012,05,19,13,08,15.80
2012,05,19,13,09,15.80
2012,05,19,13,10,15.80
2012,05,19,13,11,15.70
2012,05,19,13,12,15.80
2012,05,19,13,13,15.90
2012,05,19,13,14,16.00
2012,05,19,13,15,16.10
2012,05,19,13,16,16.20
2012,05,19,13,17,16.30
2012,05,19,13,18,16.30
2012,05,19,13,19,16.40
2012,05,19,13,20,16.30
2012,05,19,13,21,16.20
2012,05,19,13,22,16.00
2012,05,19,13,23,15.90
2012,05,19,13,24,15.90
2012,05,19,13,25,15.90
2012,05,19,13,26,16.00
2012,05,19,13,27,16.00
2012,05,19,13,28,16.00
2012,05,19,13,29,16.00
2012,05,19,13,30,15.90
2012,05,19,13,31,16.00
2012,05,19,13,32,16.10
2012,05,19,13,33,16.10
2012,05,19,13,34,16.20
2012,05,19,13,35,16.30
2012,05,19,13,36,16.30
2012,05,19,13,37,16.30
2012,05,19,13,38,16.40
2012,05,19,13,39,16.30
2012,05,19,13,40,16.20
2012,05,19,13,41,16.10
2012,05,19,13,42,16.10
2012,05,19,13,43,16.10
2012,05,19,13,44,16.10
2012,05,19,13,45,16.10
2012,05,19,13,46,16.00
2012,05,19,13,47,15.90
2012,05,19,13,48,15.90
2012,05,19,13,49,15.80
2012,05,19,13,50,15.90
2012,05,19,13,51,15.90
2012,05,19,13,52,16.00
2012,05,19,13,53,16.10
2012,05,19,13,54,16.10
2012,05,19,13,55,16.20
2012,05,19,13,56,16.20
2012,05,19,13,57,16.20
2012,05,19,13,58,16.20
2012,05,19,13,59,16.20
2012,05,19,14,00,16.20
2012,05,19,14,01,16.20
2012,05,19,14,02,16.20
2012,05,19,14,03,16.20
2012,05,19,14,04,16.30
2012,05,19,14,05,16.50
2012,05,19,14,06,16.50
2012,05,19,14,07,16.60
2012,05,19,14,08,16.60
2012,05,19,14,09,16.60
2012,05,19,14,10,16.60
2012,05,19,14,11,16.70
2012,05,19,14,12,16.70
2012,05,19,14,13,16.70
2012,05,19,14,14,16.70
2012,05,19,14,15,16.80
2012,05,19,14,16,16.80
2012,05,19,14,17,16.90
2012,05,19,14,18,16.80
2012,05,19,14,19,16.80
2012,05,19,14,20,16.80
2012,05,19,14,21,16.80
2012,05,19,14,22,16.80
2012,05,19,14,23,16.80
2012,05,19,14,24,16.80
2012,05,19,14,25,16.80
2012,05,19,14,26,16.80
2012,05,19,14,27,16.70
2012,05,19,14,28,16.70
2012,05,19,14,29,16.80
2012,05,19,14,30,16.80
2012,05,19,14,31,16.80
2012,05,19,14,32,16.80
2012,05,19,14,33,16.80
2012,05,19,14,34,16.80
2012,05,19,14,35,16.80
2012,05,19,14,36,16.80
2012,05,19,14,37,16.80
2012,05,19,14,38,16.70
2012,05,19,14,39,16.80
2012,05,19,14,40,16.70
2012,05,19,14,41,16.70
2012,05,19,14,42,16.70
2012,05,19,14,43,16.70
2012,05,19,14,44,16.80
2012,05,19,14,45,16.80
2012,05,19,14,46,16.80
2012,05,19,14,47,16.80
2012,05,19,14,48,16.80
2012,05,19,14,49,16.80
2012,05,19,14,50,16.90
2012,05,19,14,51,16.90
2012,05,19,14,52,16.90
2012,05,19,14,53,16.80
2012,05,19,14,54,16.90
2012,05,19,14,55,17.00
2012,05,19,14,56,17.10
2012,05,19,14,57,17.20
2012,05,19,14,58,17.10
2012,05,19,14,59,17.00
2012,05,19,15,00,17.00
2012,05,19,15,01,17.10
2012,05,19,15,02,17.10
2012,05,19,15,03,17.00
2012,05,19,15,04,17.00
2012,05,19,15,05,17.10
2012,05,19,15,06,17.20
2012,05,19,15,07,17.20
2012,05,19,15,08,17.20
2012,05,19,15,09,17.20
2012,05,19,15,10,17.10
2012,05,19,15,11,17.10
2012,05,19,15,12,17.00
2012,05,19,15,13,17.00
2012,05,19,15,14,17.00
2012,05,19,15,15,17.00
2012,05,19,15,16,16.90
2012,05,19,15,17,16.90
2012,05,19,15,18,16.90
2012,05,19,15,19,17.00
2012,05,19,15,20,17.10
2012,05,19,15,21,17.10
2012,05,19,15,22,17.10
2012,05,19,15,23,17.20
2012,05,19,15,24,17.20
2012,05,19,15,25,17.10
2012,05,19,15,26,17.10
2012,05,19,15,27,17.10
2012,05,19,15,28,17.10
2012,05,19,15,29,17.10
2012,05,19,15,30,17.10
2012,05,19,15,31,17.10
2012,05,19,15,32,17.10
2012,05,19,15,33,17.10
2012,05,19,15,34,17.20
2012,05,19,15,35,17.30
2012,05,19,15,36,17.30
2012,05,19,15,37,17.30
2012,05,19,15,38,17.40
2012,05,19,15,39,17.50
2012,05,19,15,40,17.50
2012,05,19,15,41,17.50
2012,05,19,15,42,17.50
2012,05,19,15,43,17.50
2012,05,19,15,44,17.50
2012,05,19,15,45,17.50
2012,05,19,15,46,17.60
2012,05,19,15,47,17.60
2012,05,19,15,48,17.60
2012,05,19,15,49,17.70
2012,05,19,15,50,17.70
2012,05,19,15,51,17.70
2012,05,19,15,52,17.70
2012,05,19,15,53,17.70
2012,05,19,15,54,17.80
2012,05,19,15,55,17.80
2012,05,19,15,56,17.80
2012,05,19,15,57,17.80
2012,05,19,15,58,17.80
2012,05,19,15,59,17.80
2012,05,19,16,00,17.80
2012,05,19,16,01,17.80
2012,05,19,16,02,17.80
2012,05,19,16,03,17.90
2012,05,19,16,04,17.90
2012,05,19,16,05,17.80
2012,05,19,16,06,17.80
2012,05,19,16,07,17.90
2012,05,19,16,08,17.90
2012,05,19,16,09,17.80
2012,05,19,16,10,17.80
2012,05,19,16,11,17.80
2012,05,19,16,12,17.70
2012,05,19,16,13,17.80
2012,05,19,16,14,17.70
2012,05,19,16,15,17.70
2012,05,19,16,16,17.70
2012,05,19,16,17,17.60
2012,05,19,16,18,17.60
2012,05,19,16,19,17.70
2012,05,19,16,20,17.60
2012,05,19,16,21,17.60
2012,05,19,16,22,17.50
2012,05,19,16,23,17.40
2012,05,19,16,24,17.40
2012,05,19,16,25,17.40
2012,05,19,16,26,17.40
2012,05,19,16,27,17.30
2012,05,19,16,28,17.30
2012,05,19,16,29,17.30
2012,05,19,16,30,17.30
2012,05,19,16,31,17.30
2012,05,19,16,32,17.30
2012,05,19,16,33,17.30
2012,05,19,16,34,17.20
2012,05,19,16,35,17.20
2012,05,19,16,36,17.10
2012,05,19,16,37,17.10
2012,05,19,16,38,17.10
2012,05,19,16,39,17.20
2012,05,19,16,40,17.20
2012,05,19,16,41,17.30
2012,05,19,16,42,17.20
2012,05,19,16,43,17.20
2012,05,19,16,44,17.20
2012,05,19,16,45,17.20
2012,05,19,16,46,17.10
2012,05,19,16,47,17.10
2012,05,19,16,48,17.10
2012,05,19,16,49,17.10
2012,05,19,16,50,17.00
2012,05,19,16,51,17.00
2012,05,19,16,52,16.90
2012,05,19,16,53,16.90
2012,05,19,16,54,16.90
2012,05,19,16,55,16.90
2012,05,19,16,56,16.90
2012,05,19,16,57,16.90
2012,05,19,16,58,16.80
2012,05,19,16,59,16.80
2012,05,19,17,00,16.90
2012,05,19,17,01,16.90
2012,05,19,17,02,16.90
2012,05,19,17,03,16.90
2012,05,19,17,04,16.90
2012,05,19,17,05,17.00
2012,05,19,17,06,17.00
2012,05,19,17,07,17.00
2012,05,19,17,08,17.00
2012,05,19,17,09,17.10
2012,05,19,17,10,17.10
2012,05,19,17,11,17.10
2012,05,19,17,12,17.10
2012,05,19,17,13,17.10
2012,05,19,17,14,17.10
2012,05,19,17,15,17.10
2012,05,19,17,16,17.10
2012,05,19,17,17,17.00
2012,05,19,17,18,17.00
2012,05,19,17,19,17.10
2012,05,19,17,20,17.00
2012,05,19,17,21,17.00
2012,05,19,17,22,17.00
2012,05,19,17,23,17.00
2012,05,19,17,24,17.10
2012,05,19,17,25,17.20
2012,05,19,17,26,17.20
2012,05,19,17,27,17.20
2012,05,19,17,28,17.20
2012,05,19,17,29,17.20
2012,05,19,17,30,17.20
2012,05,19,17,31,17.20
2012,05,19,17,32,17.10
2012,05,19,17,33,17.10
2012,05,19,17,34,17.10
2012,05,19,17,35,17.10
2012,05,19,17,36,17.10
2012,05,19,17,37,17.10
2012,05,19,17,38,17.00
2012,05,19,17,39,17.00
2012,05,19,17,40,16.90